CZ-2D R/B

Last updated on Thu Nov 21 2024 00:02:13 GMT+0000 (Coordinated Universal Time)

1 28738U 05024B 24325.46163861 .00020557 00000+0 64204-3 0 9997 2 28738 97.3688 322.5173 0005984 325.5628 34.5226 15.33196915 66547
UTC large
Height (km)
Speed (km/s)
/
Latitude / Longitude
Inclination (degrees)
Orbital Period (minutes)
Azimuth
Elevation
Range (km)
Doppler Factor

Next 0 passes for location: London (51.5072 / 0.1276)

Sorry there are no passes over London.